Content
SEND FEEDBACK

Daily
Averages
Monthly
Summary
United States of America

BETHEL, OKLAHOMA


Home > North America > United States > Oklahoma
Elevation: 1300 feet     Latitude: 34 15N     Longitude: 094 46W

WEATHER
 
SELECT A DAY
Number of Records: 155,764;   Date Range: 7/12/01 - 7/29/14
 
SHARE

PRINT THIS DATA

[ ← Previous Day ]
WEATHER ALMANAC - JANUARY 23, 2013
[ Next Day → ]
[ °C ]   °F
Weather ElementAverageHighLow
Temperature46.3 °F66.9 °F (2:53 pm)33.1 °F (1:53 am)
Dewpoint38.5 °F48.9 °F (4:53 pm)28 °F (4:53 am)
Humidity76.6 %96 % (8:53 pm)49 % (2:53 pm)
Barometer30.23 in30.31 in (9:53 am)30.14 in (4:53 pm)
Wind Speed3 mph10.4 mph (1:53 pm)
Weather ElementAverage
Visibility7.3 mi
Wind DirectionE (88.4 °)

Weather ElementTotal
Precipitation---
Heating Degree Days15 (Base 65)
Averaged from 25 records on January 23, 2013
WEATHER CONDITIONS BREAKOUT
WIND DIRECTION BREAKOUT
WEATHER BY HOUR - JANUARY 23, 2013
[ °C ]   °F
Local TimeTemperatureDewpointHumidityBarometerVisibilityWind DirectionWind SpeedGust SpeedPrecipitationEventsConditions
1:53 AM33.1 °F28.9 °F85 %30.28 in10.0 miNE (50°)4.6 mphClear
2:53 AM35.1 °F30.0 °F82 %30.29 in10.0 miCalmMostly Cloudy
3:53 AM37.9 °F28.9 °F70 %30.28 in10.0 miEast (90°)3.5 mphMostly Cloudy
4:53 AM37.0 °F28.0 °F70 %30.27 in10.0 miEast (100°)3.5 mphPartly Cloudy
5:53 AM36.0 °F30.0 °F79 %30.28 in10.0 miCalmMostly Cloudy
6:53 AM34.0 °F28.9 °F82 %30.28 in10.0 miCalmScattered Clouds
7:53 AM35.1 °F30.9 °F85 %30.29 in10.0 miCalmScattered Clouds
8:53 AM41.0 °F30.9 °F67 %30.30 in10.0 miENE (70°)4.6 mphOvercast
9:53 AM45.0 °F32.0 °F60 %30.31 in10.0 miEast (100°)4.6 mphOvercast
10:53 AM48.9 °F34.0 °F56 %30.30 in10.0 miSSE (150°)4.6 mphPartly Cloudy
11:53 AM53.1 °F39.0 °F59 %30.28 in9.0 miWest (260°)4.6 mphOvercast
12:53 PM59.0 °F42.1 °F53 %30.23 in10.0 miWest (270°)5.8 mphClear
1:53 PM64.0 °F46.0 °F52 %30.20 in10.0 miWest (260°)10.4 mphClear
2:53 PM66.9 °F46.9 °F49 %30.18 in10.0 miSW (230°)5.8 mphClear
4:53 PM66.9 °F48.9 °F52 %30.14 in10.0 miCalmPartly Cloudy
5:53 PM60.1 °F48.9 °F67 %30.14 in7.0 miSSE (160°)3.5 mphClear
7:53 PM46.9 °F45.0 °F93 %30.17 in7.0 miEast (90°)3.5 mphClear
8:53 PM46.0 °F45.0 °F96 %30.17 in4.0 miCalmClear
9:53 PM44.1 °F43.0 °F96 %30.18 in2.0 miCalmClear
10:00 PM44.1 °F43.0 °F96 %30.18 in1.5 miCalmClear
10:35 PM44.1 °F42.1 °F93 %30.19 in2.0 miCalmClear
10:53 PM44.1 °F42.1 °F93 %30.18 in2.0 miEast (100°)3.5 mphClear
11:19 PM43.0 °F41.0 °F93 %30.19 in1.2 miEast (80°)3.5 mphScattered Clouds
11:32 PM45.0 °F43.0 °F93 %30.19 in3.0 miEast (100°)3.5 mphMostly Cloudy
11:53 PM46.0 °F44.1 °F93 %30.18 in5.0 miEast (100°)4.6 mphOvercast
Hourly data recorded from KDEQ, located miles away from Bethel, Oklahoma







STORIES FROM OUR PARTNERS